QPF
0.07 0.10 0.08 0.03 0.05 0.02 0.02 0.01 0.01 0.00 0.00 0.00 0.00 0.00 0.00 0.00 0.00 0.00 0.00 0.00 0.00 0.00 0.00 0.00 0.00 0.00 0.00 0.00 0.00 0.00 0.00 0.00 0.00 0.00 0.00 0.00 0.00 0.00 0.01 0.01 0.00 0.00 0.00 0.00 0.00 0.00 0.00 0.00 0.00 0.01 0.01 0.01 0.01 0.01
0.04 0.09 0.12 0.06 0.04 0.02 0.02 0.02 0.01 0.00 0.00 0.00 0.00 0.00 0.00 0.00 0.00 0.00 0.00 0.00 0.00 0.00 0.00 0.00 0.00 0.00 0.00 0.00 0.00 0.00 0.00 0.00 0.00 0.00 0.00 0.00 0.00 0.00 0.00 0.00 0.00 0.00 0.00 0.00 0.01 0.01 0.02 0.01 0.01 0.01 0.00 0.00 0.00 0.00
0.03 0.05 0.07 0.05 0.03 0.02 0.02 0.02 0.01 0.00 0.00 0.00 0.00 0.00 0.00 0.00 0.00 0.00 0.00 0.00 0.00 0.00 0.00 0.00 0.00 0.00 0.00 0.00 0.00 0.00 0.00 0.00 0.00 0.00 0.00 0.00 0.00 0.00 0.00 0.01 0.00 0.00 0.00 0.00 0.00 0.02 0.01 0.01 0.00 0.00 0.00 0.00 0.00 0.00
0.02 0.01 0.01 0.01 0.02 0.02 0.03 0.02 0.01 0.00 0.00 0.00 0.00 0.00 0.00 0.00 0.00 0.00 0.00 0.00 0.00 0.00 0.00 0.00 0.00 0.00 0.00 0.00 0.00 0.00 0.00 0.00 0.00 0.00 0.00 0.00 0.00 0.00 0.00 0.00 0.00 0.00 0.00 0.00 0.01 0.01 0.01 0.01 0.00 0.00 0.00 0.00 0.00 0.00
0.04 0.01 0.00 0.00 0.01 0.01 0.03 0.03 0.01 0.00 0.00 0.00 0.00 0.00 0.00 0.00 0.00 0.00 0.00 0.00 0.00 0.00 0.00 0.00 0.00 0.00 0.00 0.00 0.00 0.00 0.00 0.00 0.00 0.00 0.00 0.00 0.00 0.00 0.00 0.00 0.00 0.00 0.00 0.00 0.00 0.00 0.00 0.01 0.00 0.00 0.00 0.00 0.00 0.00
0.05 0.02 0.00 0.00 0.01 0.01 0.02 0.03 0.01 0.00 0.01 0.00 0.00 0.00 0.00 0.00 0.00 0.00 0.00 0.00 0.00 0.00 0.00 0.00 0.00 0.00 0.00 0.00 0.00 0.00 0.00 0.00 0.00 0.00 0.00 0.00 0.00 0.00 0.00 0.00 0.00 0.00 0.00 0.00 0.00 0.00 0.00 0.00 0.00 0.00 0.00 0.00 0.00 0.00
0.06 0.04 0.02 0.01 0.01 0.02 0.01 0.01 0.01 0.00 0.01 0.01 0.00 0.00 0.00 0.00 0.00 0.00 0.00 0.00 0.00 0.00 0.00 0.00 0.00 0.00 0.00 0.00 0.00 0.00 0.00 0.00 0.00 0.00 0.00 0.00 0.00 0.00 0.00 0.00 0.00 0.00 0.00 0.00 0.00 0.00 0.00 0.00 0.00 0.00 0.00 0.00 0.00 0.00
0.04 0.08 0.05 0.01 0.00 0.01 0.00 0.00 0.01 0.01 0.01 0.01 0.00 0.00 0.00 0.00 0.00 0.00 0.01 0.00 0.00 0.00 0.00 0.00 0.00 0.00 0.00 0.00 0.00 0.00 0.00 0.00 0.00 0.00 0.00 0.00 0.00 0.00 0.00 0.00 0.00 0.00 0.00 0.00 0.00 0.00 0.00 0.00 0.00 0.00 0.00 0.00 0.00 0.00
0.06 0.13 0.05 0.00 0.00 0.00 0.00 0.00 0.01 0.01 0.01 0.01 0.00 0.00 0.00 0.00 0.00 0.00 0.02 0.02 0.00 0.00 0.00 0.00 0.00 0.00 0.00 0.00 0.00 0.00 0.00 0.00 0.00 0.00 0.00 0.00 0.00 0.00 0.00 0.00 0.00 0.00 0.00 0.00 0.00 0.00 0.00 0.00 0.00 0.00 0.00 0.00 0.00 0.00
0.12 0.13 0.01 0.00 0.00 0.00 0.00 0.00 0.01 0.01 0.01 0.00 0.00 0.00 0.00 0.00 0.00 0.01 0.01 0.00 0.00 0.00 0.00 0.00 0.00 0.00 0.00 0.00 0.00 0.00 0.00 0.00 0.00 0.00 0.00 0.00 0.00 0.00 0.00 0.00 0.00 0.00 0.00 0.00 0.00 0.00 0.00 0.00 0.00 0.00 0.00 0.00 0.00 0.00
0.13 0.05 0.00 0.00 0.00 0.00 0.00 0.00 0.01 0.01 0.00 0.00 0.00 0.01 0.00 0.01 0.01 0.01 0.01 0.00 0.00 0.00 0.00 0.00 0.00 0.00 0.00 0.00 0.00 0.00 0.00 0.00 0.00 0.00 0.00 0.00 0.00 0.00 0.00 0.00 0.00 0.00 0.00 0.00 0.00 0.00 0.00 0.00 0.00 0.00 0.00 0.00 0.00 0.00
0.07 0.02 0.01 0.00 0.00 0.00 0.00 0.00 0.00 0.00 0.00 0.00 0.01 0.02 0.04 0.06 0.03 0.01 0.01 0.00 0.00 0.00 0.00 0.00 0.00 0.00 0.00 0.00 0.00 0.00 0.00 0.00 0.00 0.00 0.00 0.00 0.00 0.00 0.00 0.00 0.00 0.00 0.00 0.00 0.00 0.00 0.00 0.00 0.00 0.00 0.00 0.00 0.00 0.00
0.03 0.02 0.01 0.00 0.00 0.00 0.00 0.00 0.00 0.00 0.00 0.03 0.04 0.03 0.05 0.02 0.01 0.01 0.01 0.00 0.00 0.00 0.00 0.00 0.00 0.00 0.00 0.00 0.00 0.00 0.00 0.00 0.00 0.00 0.00 0.00 0.00 0.00 0.00 0.00 0.00 0.00 0.00 0.00 0.00 0.00 0.00 0.00 0.00 0.00 0.00 0.00 0.00 0.00
0.07 0.03 0.01 0.00 0.00 0.00 0.00 0.00 0.01 0.00 0.00 0.01 0.01 0.01 0.00 0.00 0.00 0.00 0.00 0.00 0.00 0.00 0.00 0.00 0.00 0.00 0.00 0.00 0.00 0.00 0.00 0.00 0.00 0.00 0.00 0.00 0.00 0.00 0.00 0.00 0.00 0.00 0.00 0.00 0.00 0.00 0.00 0.00 0.00 0.00 0.00 0.00 0.00 0.00
0.06 0.02 0.02 0.01 0.00 0.01 0.01 0.01 0.00 0.00 0.00 0.01 0.01 0.00 0.00 0.00 0.00 0.00 0.00 0.00 0.00 0.00 0.00 0.00 0.00 0.00 0.00 0.00 0.00 0.00 0.00 0.00 0.00 0.00 0.00 0.00 0.00 0.00 0.00 0.00 0.00 0.00 0.00 0.00 0.00 0.00 0.00 0.00 0.00 0.00 0.00 0.00 0.00 0.00
0.06 0.06 0.02 0.03 0.03 0.02 0.00 0.00 0.00 0.00 0.00 0.00 0.00 0.01 0.01 0.00 0.00 0.00 0.00 0.00 0.00 0.00 0.00 0.00 0.00 0.00 0.00 0.00 0.00 0.00 0.00 0.00 0.00 0.00 0.00 0.00 0.00 0.00 0.00 0.00 0.00 0.00 0.00 0.00 0.00 0.00 0.00 0.00 0.00 0.00 0.00 0.00 0.00 0.00
0.03 0.02 0.03 0.04 0.03 0.00 0.00 0.00 0.00 0.00 0.00 0.00 0.00 0.00 0.01 0.00 0.00 0.00 0.00 0.00 0.00 0.00 0.00 0.00 0.00 0.00 0.00 0.00 0.00 0.00 0.00 0.00 0.00 0.00 0.00 0.00 0.00 0.00 0.00 0.00 0.00 0.00 0.00 0.00 0.00 0.00 0.00 0.00 0.00 0.00 0.00 0.00 0.00 0.00
0.00 0.00 0.03 0.03 0.01 0.00 0.00 0.00 0.00 0.00 0.00 0.00 0.00 0.01 0.02 0.00 0.00 0.00 0.00 0.00 0.00 0.00 0.00 0.00 0.00 0.00 0.00 0.00 0.00 0.00 0.00 0.00 0.00 0.00 0.00 0.00 0.00 0.00 0.00 0.00 0.00 0.00 0.00 0.00 0.00 0.00 0.00 0.00 0.00 0.00 0.00 0.00 0.00 0.00
0.00 0.02 0.04 0.01 0.00 0.00 0.00 0.00 0.00 0.00 0.00 0.00 0.00 0.00 0.01 0.00 0.00 0.00 0.00 0.00 0.02 0.02 0.00 0.00 0.00 0.00 0.00 0.00 0.00 0.00 0.00 0.00 0.00 0.00 0.00 0.00 0.00 0.00 0.00 0.00 0.00 0.00 0.00 0.00 0.00 0.00 0.00 0.00 0.00 0.00 0.00 0.00 0.00 0.00
0.01 0.01 0.01 0.01 0.00 0.00 0.00 0.00 0.00 0.00 0.00 0.00 0.00 0.00 0.00 0.00 0.00 0.00 0.00 0.00 0.01 0.11 0.08 0.00 0.00 0.00 0.00 0.00 0.00 0.00 0.00 0.00 0.00 0.00 0.00 0.00 0.00 0.00 0.00 0.00 0.00 0.00 0.00 0.00 0.00 0.00 0.00 0.00 0.00 0.00 0.00 0.00 0.00 0.00
0.03 0.03 0.03 0.00 0.00 0.00 0.00 0.00 0.00 0.00 0.00 0.00 0.00 0.00 0.00 0.00 0.00 0.00 0.00 0.00 0.00 0.00 0.02 0.00 0.00 0.00 0.00 0.00 0.00 0.00 0.00 0.00 0.00 0.00 0.00 0.00 0.00 0.00 0.00 0.00 0.00 0.00 0.00 0.00 0.00 0.00 0.00 0.00 0.00 0.00 0.00 0.00 0.00 0.00
0.05 0.14 0.08 0.00 0.00 0.00 0.00 0.00 0.00 0.00 0.00 0.00 0.00 0.00 0.00 0.00 0.00 0.00 0.00 0.00 0.00 0.00 0.00 0.00 0.00 0.00 0.00 0.00 0.00 0.00 0.00 0.00 0.00 0.00 0.00 0.00 0.00 0.00 0.00 0.00 0.00 0.00 0.00 0.00 0.00 0.00 0.00 0.00 0.00 0.00 0.00 0.00 0.00 0.00
0.02 0.01 0.00 0.00 0.00 0.01 0.01 0.02 0.02 0.00 0.00 0.00 0.00 0.00 0.00 0.00 0.00 0.00 0.00 0.00 0.00 0.00 0.00 0.00 0.00 0.00 0.00 0.00 0.00 0.00 0.00 0.00 0.00 0.00 0.00 0.00 0.00 0.00 0.00 0.00 0.00 0.00 0.00 0.00 0.00 0.00 0.00 0.00 0.00 0.00 0.00 0.00 0.00 0.00
0.00 0.00 0.00 0.00 0.00 0.00 0.01 0.05 0.04 0.00 0.00 0.00 0.00 0.00 0.00 0.00 0.00 0.00 0.00 0.00 0.00 0.00 0.00 0.00 0.00 0.00 0.00 0.00 0.00 0.00 0.00 0.00 0.00 0.00 0.00 0.00 0.00 0.00 0.00 0.00 0.00 0.00 0.00 0.00 0.00 0.00 0.00 0.00 0.00 0.00 0.00 0.00 0.00 0.00
0.00 0.00 0.00 0.00 0.00 0.00 0.00 0.01 0.01 0.01 0.01 0.00 0.00 0.00 0.00 0.00 0.00 0.00 0.00 0.00 0.00 0.00 0.00 0.00 0.00 0.00 0.00 0.00 0.00 0.00 0.00 0.00 0.00 0.00 0.00 0.00 0.00 0.00 0.00 0.00 0.00 0.00 0.00 0.00 0.00 0.00 0.00 0.00 0.00 0.00 0.00 0.00 0.00 0.00
0.00 0.00 0.00 0.00 0.00 0.00 0.00 0.00 0.00 0.00 0.00 0.01 0.01 0.01 0.00 0.00 0.00 0.00 0.00 0.00 0.00 0.00 0.00 0.00 0.00 0.00 0.00 0.00 0.00 0.00 0.00 0.00 0.00 0.00 0.00 0.00 0.00 0.00 0.00 0.00 0.00 0.00 0.00 0.00 0.00 0.00 0.00 0.00 0.00 0.00 0.00 0.00 0.00 0.00
0.01 0.01 0.01 0.00 0.01 0.01 0.01 0.00 0.00 0.00 0.00 0.00 0.00 0.00 0.00 0.00 0.00 0.00 0.01 0.01 0.01 0.01 0.00 0.00 0.00 0.00 0.00 0.00 0.00 0.00 0.00 0.00 0.00 0.00 0.00 0.00 0.00 0.00 0.00 0.00 0.00 0.00 0.00 0.00 0.00 0.00 0.00 0.00 0.00 0.00 0.00 0.00 0.00 0.00
0.01 0.01 0.02 0.03 0.04 0.03 0.02 0.01 0.01 0.00 0.00 0.00 0.00 0.00 0.00 0.00 0.00 0.00 0.01 0.00 0.01 0.02 0.01 0.01 0.00 0.00 0.00 0.00 0.00 0.00 0.00 0.00 0.00 0.00 0.00 0.00 0.00 0.00 0.00 0.00 0.00 0.00 0.00 0.00 0.00 0.00 0.00 0.00 0.00 0.00 0.00 0.00 0.00 0.00
0.00 0.01 0.03 0.03 0.04 0.04 0.03 0.03 0.02 0.01 0.00 0.01 0.00 0.00 0.00 0.00 0.00 0.00 0.00 0.01 0.01 0.01 0.00 0.01 0.01 0.00 0.00 0.00 0.00 0.00 0.00 0.00 0.00 0.00 0.00 0.00 0.00 0.00 0.00 0.00 0.00 0.00 0.00 0.00 0.00 0.00 0.00 0.00 0.00 0.00 0.00 0.00 0.00 0.00
0.01 0.02 0.04 0.04 0.04 0.03 0.02 0.01 0.02 0.01 0.01 0.02 0.01 0.00 0.00 0.00 0.01 0.01 0.01 0.00 0.00 0.00 0.00 0.01 0.01 0.01 0.00 0.00 0.01 0.01 0.01 0.00 0.00 0.00 0.00 0.00 0.00 0.00 0.00 0.00 0.00 0.00 0.00 0.00 0.00 0.00 0.00 0.00 0.00 0.00 0.00 0.00 0.00 0.00
0.07 0.06 0.05 0.04 0.03 0.03 0.03 0.03 0.03 0.02 0.02 0.01 0.01 0.01 0.01 0.01 0.01 0.01 0.01 0.01 0.01 0.00 0.00 0.01 0.02 0.03 0.02 0.01 0.01 0.01 0.01 0.00 0.00 0.00 0.00 0.00 0.00 0.00 0.00 0.00 0.00 0.00 0.00 0.00 0.00 0.00 0.00 0.00 0.00 0.00 0.00 0.00 0.00 0.00
0.04 0.04 0.03 0.02 0.01 0.01 0.02 0.01 0.01 0.01 0.00 0.00 0.00 0.00 0.00 0.00 0.00 0.00 0.01 0.01 0.01 0.00 0.00 0.01 0.01 0.01 0.01 0.01 0.00 0.00 0.00 0.00 0.00 0.00 0.00 0.00 0.00 0.00 0.00 0.00 0.00 0.00 0.00 0.00 0.00 0.00 0.00 0.00 0.00 0.00 0.00 0.00 0.00 0.00
0.00 0.00 0.00 0.00 0.00 0.00 0.00 0.00 0.00 0.00 0.00 0.00 0.00 0.00 0.00 0.00 0.00 0.00 0.01 0.02 0.01 0.00 0.00 0.01 0.01 0.01 0.01 0.00 0.00 0.00 0.00 0.00 0.00 0.00 0.00 0.00 0.00 0.00 0.00 0.00 0.00 0.00 0.00 0.00 0.00 0.00 0.00 0.00 0.00 0.00 0.00 0.00 0.00 0.00
MSLP
1006.69 1007.58 1008.31 1009.19 1009.96 1010.73 1011.45 1011.90 1012.48 1013.11 1013.70 1014.18 1014.65 1014.91 1014.81 1014.79 1015.03 1015.38 1016.89 1016.74 1017.14 1018.27 1018.24 1017.93 1017.77 1017.71 1018.03 1018.25 1018.79 1018.56 1018.58 1018.45 1018.38 1018.72 1018.93 1018.59 1017.99 1017.25 1016.85 1016.74 1016.56 1016.69 1016.83 1017.30 1017.50 1018.45 1019.98 1020.34 1019.73 1020.38 1021.78 1022.12 1022.20 1022.42
1006.50 1007.43 1008.34 1009.15 1009.94 1010.67 1011.37 1011.97 1012.57 1013.19 1014.00 1014.47 1014.73 1014.89 1014.87 1015.08 1015.32 1015.55 1016.89 1017.03 1017.31 1018.21 1018.57 1018.29 1017.71 1017.42 1017.37 1017.65 1018.18 1018.39 1018.61 1018.81 1019.01 1019.41 1019.24 1019.01 1018.60 1018.02 1017.70 1017.56 1017.36 1017.85 1018.40 1018.81 1019.76 1020.71 1021.58 1021.79 1021.78 1022.10 1022.37 1022.77 1023.05 1023.14
1006.21 1007.02 1008.25 1009.16 1009.96 1010.73 1011.42 1011.97 1012.59 1013.43 1014.06 1014.42 1014.81 1014.92 1015.26 1015.36 1015.58 1015.83 1017.04 1017.60 1017.96 1018.78 1018.71 1018.16 1017.49 1017.23 1017.16 1017.48 1017.53 1018.28 1018.71 1018.48 1018.82 1019.13 1019.34 1019.30 1019.05 1018.61 1018.48 1018.46 1018.45 1018.79 1018.87 1019.61 1020.64 1021.63 1022.00 1022.48 1022.77 1022.89 1023.22 1023.65 1023.80 1023.91
1006.36 1007.34 1008.32 1009.21 1010.10 1010.93 1011.56 1012.16 1012.80 1013.46 1014.10 1014.68 1015.08 1015.35 1015.58 1015.65 1015.96 1016.17 1017.29 1017.94 1018.21 1019.04 1018.94 1018.32 1017.32 1017.03 1016.86 1017.14 1017.46 1017.81 1018.13 1018.39 1018.79 1019.31 1019.55 1019.51 1019.30 1018.83 1018.89 1018.90 1019.28 1019.75 1019.61 1020.23 1021.20 1021.94 1022.44 1022.93 1023.35 1023.74 1024.03 1024.25 1024.49 1024.82
1006.38 1007.43 1008.42 1009.38 1010.27 1011.02 1011.74 1012.32 1013.01 1013.69 1014.39 1014.87 1015.17 1015.58 1015.82 1016.15 1016.41 1016.94 1017.54 1018.13 1018.25 1018.97 1019.04 1018.78 1017.87 1017.19 1016.85 1017.11 1017.47 1017.74 1018.16 1018.72 1019.43 1019.75 1019.90 1019.84 1019.25 1019.21 1019.38 1019.58 1020.20 1020.34 1020.54 1020.66 1021.00 1021.38 1022.15 1023.18 1023.79 1024.29 1024.63 1025.05 1025.38 1025.60
1006.44 1007.48 1008.54 1009.50 1010.35 1011.25 1012.12 1012.79 1013.29 1013.90 1014.58 1015.17 1015.62 1015.99 1016.28 1016.66 1016.91 1017.32 1018.32 1018.56 1018.47 1018.70 1019.22 1019.12 1018.69 1017.79 1017.20 1017.34 1017.63 1017.96 1018.45 1019.04 1019.58 1019.99 1020.01 1019.62 1018.98 1019.16 1019.96 1020.60 1020.87 1020.82 1020.91 1020.93 1021.51 1021.81 1022.38 1023.26 1024.14 1024.77 1025.31 1025.87 1026.24 1026.47
1006.61 1007.70 1008.67 1009.59 1010.44 1011.27 1012.19 1012.97 1013.57 1014.31 1014.98 1015.55 1016.00 1016.40 1016.75 1017.11 1017.52 1017.99 1018.57 1018.58 1018.48 1018.82 1019.37 1019.72 1018.90 1017.94 1017.51 1017.60 1018.06 1018.72 1018.93 1019.44 1019.74 1020.06 1020.09 1019.83 1019.36 1019.47 1020.23 1020.86 1021.05 1021.26 1021.49 1021.76 1022.02 1022.54 1023.43 1023.81 1024.73 1025.36 1025.85 1026.56 1027.05 1027.55
1007.08 1007.96 1008.93 1009.84 1010.69 1011.56 1012.35 1013.14 1013.89 1014.64 1015.33 1015.87 1016.41 1016.75 1017.12 1017.51 1017.84 1018.32 1018.33 1018.24 1018.56 1018.99 1019.39 1019.76 1019.50 1018.90 1018.26 1018.71 1019.30 1019.42 1019.83 1019.94 1020.01 1020.16 1020.11 1020.00 1019.76 1019.94 1020.52 1020.84 1021.15 1021.49 1021.94 1022.34 1022.63 1022.88 1023.55 1024.34 1025.24 1026.12 1026.75 1027.28 1027.77 1028.28
1007.47 1008.44 1009.43 1010.30 1011.08 1011.85 1012.64 1013.44 1014.18 1014.93 1015.64 1016.19 1016.72 1017.18 1017.76 1018.21 1018.61 1018.69 1018.42 1018.44 1018.67 1019.33 1019.35 1019.88 1019.84 1019.46 1018.78 1019.13 1019.70 1019.99 1020.13 1020.66 1020.52 1020.47 1020.29 1020.31 1020.44 1020.36 1020.43 1020.76 1021.11 1021.49 1021.92 1022.60 1023.26 1023.80 1024.45 1025.10 1026.00 1026.74 1027.34 1027.92 1028.20 1028.81
1007.75 1008.78 1009.78 1010.66 1011.45 1012.23 1012.99 1013.79 1014.57 1015.31 1015.96 1016.64 1017.29 1017.84 1018.61 1018.63 1018.21 1018.36 1018.84 1019.11 1019.27 1019.28 1019.57 1019.68 1019.75 1019.51 1019.37 1019.94 1020.38 1020.85 1020.87 1021.07 1021.13 1020.66 1020.37 1020.51 1020.79 1020.55 1020.31 1020.39 1021.03 1021.62 1022.16 1022.79 1023.64 1024.64 1025.20 1025.86 1026.48 1027.15 1027.76 1028.31 1028.82 1029.48
1008.23 1009.09 1010.13 1011.05 1011.88 1012.68 1013.31 1014.15 1014.93 1015.69 1016.47 1017.13 1017.76 1018.02 1018.40 1018.23 1018.46 1018.75 1019.23 1019.43 1019.59 1019.84 1019.78 1019.56 1019.67 1019.66 1019.46 1020.09 1020.67 1021.00 1021.23 1021.41 1021.40 1021.12 1021.18 1021.36 1021.18 1020.96 1020.93 1021.15 1021.55 1021.94 1022.53 1023.10 1023.60 1024.26 1024.93 1025.66 1026.68 1027.65 1028.60 1029.22 1029.86 1030.46
1008.67 1009.69 1010.63 1011.47 1012.29 1013.07 1013.76 1014.57 1015.24 1015.92 1016.65 1016.97 1017.35 1017.67 1017.96 1018.44 1018.79 1019.15 1019.32 1019.36 1019.52 1019.44 1019.51 1019.56 1019.53 1019.41 1019.53 1019.64 1020.39 1021.14 1021.45 1021.81 1021.63 1021.44 1021.79 1021.90 1021.21 1021.28 1021.56 1021.87 1022.41 1022.76 1023.22 1023.82 1024.27 1024.97 1025.85 1026.68 1027.47 1028.33 1029.24 1030.03 1030.77 1031.47
1009.46 1010.28 1011.14 1011.94 1012.74 1013.49 1014.18 1014.88 1015.52 1016.19 1016.61 1017.27 1017.42 1017.83 1018.11 1018.81 1018.99 1019.16 1018.86 1018.99 1019.21 1018.80 1019.17 1019.21 1019.55 1019.08 1019.70 1020.07 1020.88 1021.24 1021.74 1022.13 1021.62 1021.97 1022.21 1021.52 1021.41 1021.83 1022.23 1022.53 1023.22 1023.77 1024.24 1024.81 1025.55 1026.13 1026.86 1027.73 1028.33 1029.08 1030.03 1030.89 1031.63 1032.39
1010.12 1010.85 1011.70 1012.52 1013.27 1013.93 1014.67 1015.42 1016.02 1016.41 1016.86 1017.87 1017.92 1018.20 1018.23 1018.54 1018.46 1018.07 1017.88 1017.98 1018.01 1018.05 1018.58 1018.82 1019.38 1019.31 1020.11 1020.76 1021.53 1021.99 1022.14 1021.99 1022.26 1022.64 1022.16 1021.20 1021.38 1022.13 1022.74 1023.19 1023.76 1024.78 1025.35 1025.90 1026.62 1027.32 1027.97 1028.67 1029.63 1030.34 1030.89 1031.53 1032.25 1033.25
1010.84 1011.57 1012.38 1013.25 1013.86 1014.55 1015.31 1015.96 1016.30 1016.78 1017.60 1018.10 1018.23 1018.53 1018.48 1018.17 1017.98 1017.71 1017.63 1017.77 1017.86 1017.94 1018.30 1019.11 1019.66 1019.98 1020.86 1021.24 1021.48 1021.98 1022.27 1022.35 1022.28 1022.17 1021.41 1021.20 1021.71 1022.42 1023.27 1023.99 1024.73 1025.62 1026.44 1027.11 1027.61 1028.28 1029.01 1029.70 1030.46 1031.38 1031.70 1032.08 1032.60 1033.21
1011.64 1012.43 1013.13 1013.71 1014.41 1015.24 1015.83 1016.39 1017.11 1017.72 1018.37 1018.75 1018.96 1018.98 1018.65 1018.29 1017.88 1017.83 1017.65 1017.68 1017.85 1017.89 1018.15 1018.82 1020.09 1020.55 1021.14 1021.27 1021.69 1021.96 1022.33 1022.22 1021.51 1021.68 1021.55 1021.82 1022.41 1023.13 1023.90 1024.69 1025.44 1026.13 1026.85 1027.61 1028.32 1028.97 1029.69 1030.38 1030.88 1031.50 1032.05 1032.52 1032.96 1033.40
1012.23 1013.11 1013.50 1014.21 1015.12 1015.90 1016.32 1017.24 1018.00 1018.63 1019.12 1019.23 1019.44 1019.28 1019.08 1018.81 1018.46 1018.07 1017.74 1017.67 1017.70 1017.96 1019.05 1019.35 1020.21 1020.66 1020.92 1021.44 1021.78 1021.54 1021.53 1021.01 1020.96 1021.59 1022.19 1022.55 1022.97 1023.63 1024.51 1025.27 1025.99 1026.69 1027.45 1028.17 1028.88 1029.59 1030.23 1030.64 1031.09 1031.66 1032.33 1032.54 1032.93 1033.22
1012.99 1013.51 1014.25 1014.96 1015.68 1016.57 1017.54 1018.02 1018.56 1019.03 1019.39 1019.54 1019.70 1019.37 1019.27 1018.90 1018.69 1018.29 1018.06 1017.73 1017.72 1018.06 1018.64 1018.93 1019.44 1020.59 1021.23 1021.36 1021.46 1020.73 1020.66 1021.13 1021.26 1021.86 1022.67 1023.42 1023.71 1024.24 1024.76 1025.49 1026.28 1026.97 1027.75 1028.44 1029.01 1029.61 1030.15 1030.75 1031.08 1031.43 1031.81 1032.18 1032.59 1032.84
1013.40 1014.17 1014.98 1015.56 1016.00 1016.83 1018.01 1018.65 1018.73 1019.13 1019.46 1019.45 1019.42 1019.24 1019.12 1019.12 1019.00 1018.66 1018.44 1018.13 1017.86 1018.03 1018.48 1019.06 1019.82 1020.61 1020.81 1020.49 1020.42 1020.89 1020.87 1021.32 1021.70 1022.56 1023.46 1023.75 1024.05 1024.55 1025.17 1025.87 1026.56 1027.25 1027.84 1028.41 1028.89 1029.25 1029.72 1030.12 1030.44 1030.89 1031.34 1031.83 1032.14 1032.15
1014.18 1015.07 1015.69 1016.10 1016.19 1017.05 1017.99 1018.66 1018.65 1018.93 1019.30 1019.27 1019.32 1019.49 1019.55 1019.43 1019.09 1018.97 1018.84 1018.52 1018.34 1018.63 1019.00 1019.59 1020.07 1019.77 1020.00 1019.90 1019.88 1020.10 1020.33 1020.89 1021.63 1022.79 1023.78 1024.36 1024.57 1024.96 1025.47 1025.95 1026.62 1027.23 1027.84 1028.34 1028.73 1029.06 1029.56 1030.03 1030.31 1030.59 1030.95 1031.35 1031.78 1031.96
1015.27 1016.00 1016.36 1016.64 1017.18 1017.50 1017.94 1018.35 1018.54 1018.58 1018.92 1019.20 1019.10 1019.36 1019.53 1019.38 1019.41 1019.45 1019.22 1018.95 1019.13 1019.23 1019.20 1019.20 1019.42 1019.19 1019.42 1019.51 1019.68 1019.86 1020.27 1020.62 1021.27 1021.88 1022.75 1024.04 1024.59 1025.01 1025.60 1026.01 1026.44 1026.96 1027.54 1028.07 1028.60 1029.16 1029.45 1029.68 1029.80 1030.19 1030.64 1030.98 1031.33 1031.54
1015.76 1016.44 1016.95 1017.31 1017.76 1018.05 1018.16 1018.12 1018.17 1018.31 1018.64 1018.82 1019.21 1019.35 1019.61 1019.77 1019.56 1019.17 1018.91 1019.37 1019.36 1018.67 1018.47 1018.80 1018.93 1019.13 1019.56 1019.83 1019.90 1020.08 1020.35 1020.85 1021.41 1021.99 1022.61 1023.26 1024.33 1024.89 1025.38 1025.73 1026.26 1026.83 1027.36 1027.83 1028.27 1028.82 1029.15 1029.30 1029.64 1029.98 1030.42 1030.96 1031.22 1031.50
1016.15 1016.43 1017.34 1017.76 1018.26 1018.32 1018.35 1017.98 1018.16 1018.32 1018.67 1018.80 1018.92 1019.24 1019.44 1019.23 1018.85 1018.72 1019.16 1019.08 1018.72 1018.12 1018.12 1018.40 1018.55 1018.79 1019.12 1019.55 1019.82 1020.19 1020.66 1021.03 1021.76 1022.31 1022.86 1023.33 1023.88 1024.33 1024.86 1025.45 1025.88 1026.55 1027.13 1027.53 1027.77 1028.23 1028.78 1029.09 1029.64 1030.16 1030.62 1031.11 1031.60 1031.88
1016.12 1016.96 1017.74 1018.13 1018.37 1018.58 1018.30 1017.79 1017.71 1018.10 1018.45 1018.73 1019.02 1019.19 1018.95 1018.83 1018.84 1019.16 1019.52 1019.00 1018.49 1018.56 1018.64 1018.63 1018.75 1019.25 1019.54 1019.93 1020.31 1020.56 1020.99 1021.45 1022.13 1022.78 1023.08 1023.50 1024.17 1024.66 1024.90 1025.36 1025.82 1026.20 1026.49 1026.87 1027.49 1028.05 1028.61 1029.14 1029.74 1030.30 1030.72 1031.12 1031.46 1031.67
1016.89 1017.74 1017.92 1018.19 1018.28 1018.63 1018.39 1018.09 1017.97 1018.12 1018.43 1018.55 1018.81 1018.77 1018.80 1018.89 1019.46 1019.89 1019.63 1019.22 1019.08 1019.27 1019.49 1019.31 1019.36 1019.71 1020.11 1020.44 1020.82 1020.99 1021.14 1021.49 1022.15 1022.94 1023.43 1023.58 1024.29 1024.87 1025.40 1025.69 1026.01 1026.25 1026.32 1026.93 1027.70 1028.14 1028.73 1029.28 1029.78 1030.24 1030.63 1030.93 1031.22 1031.42
1017.03 1017.35 1017.59 1017.49 1017.75 1017.93 1017.90 1018.19 1018.18 1018.22 1018.44 1018.63 1018.60 1018.66 1018.91 1019.69 1020.17 1020.14 1019.87 1020.05 1019.77 1019.46 1019.69 1019.79 1019.79 1020.03 1020.43 1020.65 1021.26 1021.45 1021.59 1021.74 1022.32 1023.21 1023.71 1023.73 1024.03 1024.55 1025.34 1025.91 1026.29 1026.59 1026.47 1026.65 1027.42 1028.26 1028.87 1029.28 1029.74 1030.19 1030.51 1030.74 1031.02 1031.31
1017.12 1017.07 1017.15 1017.12 1017.12 1017.30 1017.73 1017.79 1017.88 1018.38 1018.68 1018.93 1018.78 1019.29 1019.62 1020.39 1020.34 1020.59 1020.68 1020.72 1020.50 1020.08 1019.67 1019.39 1019.60 1019.93 1020.49 1021.17 1021.68 1021.91 1021.97 1022.19 1022.71 1023.42 1023.99 1024.25 1024.53 1024.64 1024.97 1025.50 1025.99 1026.65 1026.83 1027.09 1027.51 1028.04 1028.61 1029.17 1029.66 1030.11 1030.55 1030.95 1031.24 1031.44
1016.93 1016.89 1017.05 1017.10 1017.30 1017.52 1017.80 1018.09 1018.36 1018.69 1018.88 1018.76 1018.99 1019.83 1020.48 1020.85 1021.54 1021.87 1021.58 1021.24 1020.90 1020.64 1020.46 1020.33 1020.35 1020.52 1021.13 1021.78 1022.21 1022.58 1023.14 1023.46 1023.78 1024.19 1024.59 1025.27 1025.74 1025.86 1025.91 1026.17 1026.59 1027.08 1027.68 1027.96 1027.99 1028.16 1028.52 1029.06 1029.69 1030.36 1030.89 1031.37 1031.84 1031.80
1016.87 1016.98 1017.17 1017.52 1017.88 1018.22 1018.54 1018.77 1018.92 1019.24 1019.50 1019.54 1020.04 1020.91 1021.70 1022.28 1022.75 1022.67 1022.22 1021.98 1021.48 1021.33 1021.32 1021.46 1021.84 1021.94 1022.33 1022.76 1023.19 1023.50 1023.76 1024.05 1024.16 1024.79 1025.35 1026.34 1026.95 1027.56 1027.41 1027.35 1027.65 1028.04 1028.44 1028.67 1028.50 1028.72 1029.02 1029.19 1029.80 1030.62 1031.16 1031.75 1032.27 1032.63
1016.83 1016.94 1017.53 1018.10 1018.47 1018.91 1019.35 1019.47 1019.68 1019.92 1020.25 1020.69 1021.23 1022.00 1022.70 1023.24 1023.52 1023.38 1023.00 1022.58 1022.32 1022.36 1022.39 1022.47 1022.55 1022.66 1023.11 1023.42 1024.15 1024.63 1024.84 1024.82 1024.92 1025.27 1025.87 1026.66 1027.09 1027.74 1027.99 1028.19 1028.47 1028.77 1029.07 1029.30 1029.44 1029.44 1029.55 1030.24 1030.34 1031.08 1032.06 1032.87 1033.46 1034.05
1016.76 1017.28 1018.11 1018.75 1019.31 1019.70 1019.86 1020.00 1020.15 1020.57 1021.12 1021.85 1022.39 1022.94 1023.65 1023.98 1023.96 1023.91 1023.63 1023.35 1023.09 1022.98 1023.07 1023.34 1023.57 1023.84 1024.02 1024.43 1024.81 1025.13 1025.64 1025.77 1025.59 1025.60 1025.77 1026.34 1027.23 1027.90 1028.34 1028.73 1029.01 1029.22 1029.71 1030.02 1030.32 1030.63 1031.06 1031.68 1032.34 1032.95 1033.69 1034.40 1035.02 1035.43
1017.39 1018.04 1018.84 1019.66 1020.16 1020.31 1020.26 1020.50 1020.91 1021.35 1022.08 1022.69 1023.52 1023.95 1024.54 1025.01 1025.23 1024.98 1024.58 1024.10 1023.94 1024.23 1024.50 1024.46 1024.78 1025.35 1025.34 1025.48 1025.61 1025.80 1025.95 1026.38 1026.43 1026.61 1026.75 1027.30 1027.99 1028.46 1028.75 1029.18 1029.45 1029.70 1030.29 1030.77 1031.23 1031.73 1032.28 1033.25 1033.96 1034.44 1035.05 1035.62 1036.07 1036.40
1018.64 1019.09 1019.64 1020.34 1020.89 1021.10 1021.28 1021.53 1021.87 1022.49 1022.94 1023.88 1024.26 1024.81 1025.70 1026.02 1026.27 1026.11 1025.43 1025.24 1025.14 1025.19 1025.45 1025.75 1026.03 1026.23 1026.42 1026.58 1026.86 1027.07 1027.16 1027.31 1027.43 1027.55 1027.94 1028.37 1028.82 1029.21 1029.63 1029.94 1030.17 1030.49 1031.09 1031.73 1032.33 1032.79 1033.53 1034.28 1035.23 1035.76 1036.22 1036.54 1036.87 1036.78
Thickness
5345 5345 5345 5342 5342 5342 5342 5346 5350 5354 5356 5360 5366 5372 5380 5388 5391 5396 5391 5398 5401 5390 5402 5410 5413 5415 5408 5404 5392 5406 5400 5405 5400 5399 5405 5406 5413 5425 5430 5430 5428 5424 5427 5422 5434 5428 5423 5398 5415 5417 5395 5388 5391 5390
5342 5341 5340 5340 5339 5339 5340 5341 5344 5348 5349 5355 5364 5369 5377 5383 5386 5393 5387 5392 5395 5393 5396 5399 5409 5413 5414 5411 5400 5405 5411 5404 5399 5388 5404 5400 5403 5407 5416 5410 5425 5415 5411 5410 5405 5397 5386 5386 5390 5388 5387 5382 5381 5384
5339 5340 5337 5336 5336 5336 5336 5339 5341 5343 5347 5353 5360 5368 5372 5377 5382 5386 5383 5384 5386 5381 5388 5398 5407 5410 5411 5408 5408 5398 5394 5404 5402 5395 5393 5392 5405 5405 5404 5404 5414 5413 5413 5399 5394 5387 5385 5381 5381 5381 5378 5373 5374 5376
5334 5335 5334 5333 5332 5332 5333 5335 5337 5339 5343 5347 5354 5361 5367 5373 5376 5380 5377 5379 5382 5378 5384 5398 5404 5410 5410 5407 5406 5403 5401 5400 5395 5388 5387 5390 5393 5405 5403 5406 5396 5395 5403 5391 5387 5383 5381 5378 5375 5372 5371 5370 5369 5368
5331 5331 5330 5328 5327 5328 5330 5332 5333 5335 5338 5344 5351 5356 5361 5365 5369 5371 5373 5375 5379 5378 5373 5384 5396 5405 5407 5406 5403 5401 5398 5393 5384 5385 5374 5384 5386 5393 5390 5393 5386 5389 5389 5391 5386 5386 5382 5374 5371 5367 5364 5361 5360 5359
5328 5328 5326 5324 5324 5324 5324 5325 5328 5330 5333 5338 5343 5348 5354 5357 5362 5365 5359 5369 5374 5377 5372 5373 5383 5397 5404 5402 5401 5400 5392 5385 5380 5379 5378 5378 5389 5383 5374 5379 5378 5382 5382 5385 5383 5381 5377 5372 5362 5360 5356 5353 5351 5349
5323 5323 5323 5322 5321 5321 5320 5321 5324 5325 5328 5332 5337 5341 5346 5351 5355 5356 5359 5366 5370 5372 5368 5358 5386 5396 5399 5398 5394 5386 5384 5380 5379 5375 5376 5377 5382 5377 5346 5365 5371 5372 5372 5372 5372 5371 5364 5364 5353 5351 5349 5344 5339 5333
5318 5319 5319 5318 5318 5317 5317 5317 5319 5321 5322 5327 5331 5337 5342 5345 5349 5353 5358 5363 5366 5367 5368 5361 5368 5380 5388 5380 5378 5375 5376 5374 5375 5374 5371 5378 5376 5370 5363 5367 5368 5366 5364 5364 5364 5365 5358 5354 5348 5342 5338 5334 5330 5326
5313 5314 5313 5314 5314 5313 5313 5313 5314 5317 5319 5322 5325 5331 5335 5337 5338 5347 5354 5359 5362 5363 5368 5349 5361 5353 5380 5380 5372 5372 5372 5355 5368 5367 5373 5372 5360 5361 5374 5364 5361 5363 5362 5357 5355 5352 5349 5344 5337 5333 5330 5326 5324 5319
5310 5310 5309 5310 5311 5310 5309 5309 5310 5312 5314 5317 5321 5322 5322 5329 5342 5346 5347 5349 5353 5360 5363 5367 5359 5380 5376 5364 5359 5361 5358 5356 5360 5367 5368 5359 5364 5366 5368 5370 5363 5356 5353 5350 5346 5339 5339 5336 5334 5330 5326 5322 5319 5313
5306 5306 5305 5305 5306 5306 5307 5306 5306 5308 5309 5311 5312 5320 5324 5331 5337 5340 5343 5348 5351 5356 5357 5367 5362 5359 5369 5359 5356 5357 5351 5351 5362 5364 5358 5347 5366 5352 5355 5352 5349 5350 5348 5346 5346 5344 5343 5339 5330 5323 5317 5314 5308 5303
5301 5299 5298 5301 5302 5303 5303 5302 5304 5305 5305 5311 5316 5322 5327 5329 5333 5337 5338 5350 5355 5359 5353 5357 5358 5365 5360 5367 5361 5358 5355 5345 5357 5349 5357 5341 5343 5348 5346 5345 5339 5339 5340 5339 5340 5337 5332 5329 5323 5317 5311 5305 5298 5292
5291 5292 5294 5296 5298 5298 5298 5298 5300 5300 5304 5307 5314 5317 5323 5323 5328 5329 5334 5358 5355 5347 5349 5353 5354 5374 5359 5355 5343 5360 5343 5334 5344 5361 5337 5349 5346 5347 5343 5342 5334 5330 5330 5331 5329 5328 5325 5319 5316 5311 5304 5296 5291 5283
5286 5288 5290 5291 5292 5293 5294 5295 5295 5299 5302 5298 5302 5315 5321 5323 5324 5337 5349 5352 5354 5350 5354 5357 5363 5364 5352 5348 5338 5338 5339 5352 5351 5344 5351 5344 5352 5346 5344 5343 5336 5326 5323 5324 5320 5317 5313 5309 5300 5295 5290 5285 5279 5271
5281 5282 5283 5284 5286 5288 5289 5291 5294 5298 5296 5299 5310 5318 5321 5322 5328 5345 5350 5356 5355 5351 5356 5353 5349 5351 5337 5347 5355 5338 5348 5352 5348 5345 5346 5341 5348 5345 5339 5333 5324 5319 5313 5311 5308 5304 5298 5294 5292 5282 5276 5273 5270 5261
5273 5273 5277 5279 5281 5282 5284 5288 5289 5291 5292 5297 5302 5307 5319 5332 5340 5343 5349 5357 5352 5348 5350 5355 5344 5336 5341 5340 5355 5352 5351 5338 5345 5338 5338 5345 5344 5339 5333 5327 5321 5317 5313 5307 5302 5300 5294 5289 5286 5282 5272 5266 5258 5254
5270 5270 5273 5274 5274 5276 5280 5280 5280 5282 5287 5297 5300 5296 5299 5320 5330 5337 5344 5350 5347 5349 5336 5343 5335 5344 5346 5340 5340 5351 5334 5340 5340 5356 5330 5336 5342 5332 5324 5319 5315 5312 5306 5302 5297 5294 5288 5284 5280 5277 5269 5260 5255 5250
5263 5266 5267 5270 5273 5272 5270 5273 5275 5280 5286 5284 5290 5296 5303 5314 5323 5332 5335 5342 5351 5351 5345 5351 5349 5346 5338 5359 5328 5334 5352 5344 5347 5344 5327 5324 5324 5323 5324 5319 5312 5309 5302 5298 5296 5290 5284 5278 5275 5270 5265 5257 5249 5242
5261 5262 5263 5264 5268 5267 5265 5267 5275 5275 5275 5279 5284 5298 5304 5303 5311 5321 5328 5334 5342 5345 5345 5342 5337 5334 5334 5334 5333 5327 5351 5331 5340 5335 5319 5316 5322 5322 5315 5311 5306 5302 5300 5296 5293 5290 5284 5278 5273 5266 5260 5252 5245 5239
5254 5253 5255 5259 5265 5265 5266 5265 5272 5280 5277 5282 5287 5290 5296 5301 5309 5315 5319 5323 5336 5340 5349 5343 5336 5334 5336 5336 5338 5339 5334 5334 5333 5331 5324 5312 5311 5313 5312 5311 5307 5301 5297 5293 5289 5285 5279 5273 5268 5261 5254 5246 5237 5228
5246 5247 5250 5255 5258 5263 5265 5266 5272 5278 5278 5280 5289 5294 5293 5299 5297 5304 5308 5320 5319 5330 5340 5328 5330 5329 5330 5333 5334 5336 5338 5338 5332 5333 5327 5317 5309 5312 5308 5305 5303 5300 5295 5290 5285 5277 5272 5268 5262 5256 5243 5232 5225 5218
5247 5248 5249 5252 5254 5259 5264 5270 5276 5277 5278 5282 5288 5294 5284 5291 5297 5294 5311 5306 5314 5325 5336 5332 5329 5329 5331 5334 5331 5333 5331 5331 5328 5324 5320 5319 5313 5309 5306 5303 5300 5292 5288 5282 5279 5272 5267 5262 5254 5246 5235 5223 5215 5206
5248 5252 5249 5251 5249 5253 5254 5271 5275 5277 5281 5287 5290 5289 5291 5284 5297 5308 5298 5312 5316 5321 5325 5328 5331 5336 5334 5328 5332 5329 5326 5326 5320 5316 5315 5312 5310 5307 5304 5299 5295 5287 5281 5278 5276 5269 5259 5252 5243 5233 5224 5214 5203 5191
5252 5247 5243 5245 5251 5251 5264 5276 5284 5283 5279 5285 5281 5285 5298 5298 5305 5301 5299 5303 5312 5313 5320 5328 5327 5325 5325 5328 5322 5321 5320 5318 5314 5311 5310 5308 5303 5298 5298 5294 5289 5285 5283 5277 5269 5259 5251 5243 5234 5224 5211 5199 5187 5179
5246 5244 5257 5260 5260 5259 5258 5268 5278 5286 5275 5280 5286 5286 5296 5297 5286 5291 5312 5306 5304 5303 5303 5311 5316 5315 5312 5307 5309 5311 5315 5315 5312 5306 5300 5301 5296 5292 5288 5285 5280 5278 5274 5264 5253 5247 5238 5228 5220 5208 5199 5188 5182 5169
5249 5257 5266 5268 5269 5272 5275 5274 5277 5278 5286 5289 5295 5294 5288 5278 5288 5301 5301 5287 5303 5308 5301 5298 5303 5309 5310 5309 5306 5305 5305 5307 5306 5299 5295 5297 5295 5290 5280 5275 5269 5267 5264 5260 5250 5239 5229 5219 5207 5198 5188 5179 5169 5156
5266 5265 5271 5277 5283 5287 5277 5279 5287 5276 5275 5277 5282 5287 5290 5289 5307 5285 5283 5284 5288 5295 5302 5307 5309 5309 5307 5300 5297 5297 5299 5299 5297 5292 5287 5285 5282 5281 5280 5273 5266 5259 5253 5247 5238 5229 5219 5208 5196 5188 5178 5163 5153 5143
5269 5275 5278 5282 5285 5285 5285 5282 5286 5289 5281 5284 5294 5303 5298 5304 5287 5267 5270 5275 5281 5286 5290 5292 5295 5297 5293 5290 5289 5288 5286 5284 5282 5279 5277 5271 5267 5265 5263 5259 5253 5246 5239 5232 5223 5215 5206 5196 5185 5173 5160 5149 5137 5126
5274 5277 5280 5278 5275 5273 5272 5278 5279 5275 5273 5278 5278 5260 5253 5259 5253 5256 5263 5267 5274 5277 5279 5280 5279 5280 5279 5279 5278 5277 5276 5276 5279 5273 5263 5255 5247 5246 5243 5241 5235 5229 5223 5215 5208 5199 5190 5180 5168 5157 5146 5134 5120 5107
5275 5276 5272 5267 5271 5269 5259 5259 5260 5261 5262 5262 5260 5257 5252 5246 5246 5250 5255 5260 5266 5265 5265 5269 5272 5274 5273 5272 5267 5265 5262 5263 5264 5264 5256 5245 5243 5235 5229 5226 5219 5213 5207 5199 5190 5181 5173 5163 5153 5141 5127 5112 5098 5085
5279 5276 5268 5263 5260 5256 5257 5257 5260 5258 5255 5251 5247 5250 5250 5248 5246 5247 5251 5254 5255 5259 5263 5264 5264 5264 5264 5262 5259 5257 5253 5251 5251 5249 5247 5241 5233 5225 5218 5212 5206 5199 5191 5182 5173 5162 5152 5142 5128 5116 5103 5090 5075 5061
5277 5272 5266 5261 5259 5257 5259 5261 5258 5256 5249 5247 5241 5236 5238 5232 5226 5235 5243 5248 5250 5249 5248 5252 5252 5246 5247 5247 5246 5245 5244 5239 5237 5235 5233 5226 5218 5212 5206 5199 5192 5184 5175 5166 5156 5146 5135 5122 5106 5094 5081 5068 5055 5044
5263 5259 5258 5252 5250 5252 5250 5254 5255 5251 5238 5237 5238 5230 5217 5220 5226 5227 5235 5238 5239 5238 5239 5237 5236 5236 5235 5234 5232 5230 5228 5226 5223 5220 5215 5210 5204 5197 5190 5183 5176 5168 5159 5148 5138 5128 5116 5104 5089 5075 5062 5050 5039 5030